,,,PA_Meas_PMT16A,,PR_Meas_QMR101_102,,RH_Meas_QMH101,,SR_Meas_QMS101,,TA_Meas_QMH101,,GenWind,,GenWind,
date,time,status,PA,status,PR,status,RH,status,SR,status,TA,status,DirAvg,status,SpdAvg,
2012-02-24, 00:00:04,VALID,998.367,VALID,0,VALID,92.2345,VALID,0,VALID,24.2086,VALID,115,VALID,1.55508,
2012-02-24, 00:01:04,VALID,998.343,VALID,0,VALID,92.326,VALID,0,VALID,24.1482,VALID,115,VALID,1.46758,
2012-02-24, 00:02:04,VALID,998.344,VALID,0,VALID,92.4328,VALID,0,VALID,24.15,VALID,115,VALID,1.3082,
2012-02-24, 00:03:04,VALID,998.282,VALID,0,VALID,92.5091,VALID,0,VALID,24.1092,VALID,115,VALID,1.26367,
2012-02-24, 00:04:04,VALID,998.285,VALID,0,VALID,92.5702,VALID,0,VALID,24.111,VALID,117,VALID,1.40039,
2012-02-24, 00:05:04,VALID,998.269,VALID,0,VALID,92.5931,VALID,0,VALID,24.0701,VALID,108,VALID,1.11836,
2012-02-24, 00:06:04,VALID,998.313,VALID,0,VALID,92.5854,VALID,0,VALID,24.0525,VALID,80,VALID,0.845312,
2012-02-24, 00:07:04,VALID,998.319,VALID,0,VALID,92.5778,VALID,0,VALID,24.0134,VALID,61,VALID,0.665625,
2012-02-24, 00:08:04,VALID,998.327,VALID,0,VALID,92.5854,VALID,0,VALID,23.9939,VALID,61,VALID,0.527344,
2012-02-24, 00:09:04,VALID,998.286,VALID,0,VALID,92.6083,VALID,0,VALID,23.9549,VALID,61,VALID,0.482031,
2012-02-24, 00:10:04,VALID,998.284,VALID,0,VALID,92.6923,VALID,0,VALID,23.9159,VALID,61,VALID,0,
2012-02-24, 00:11:04,VALID,998.27,VALID,0,VALID,92.7457,VALID,0,VALID,23.8963,VALID,61,VALID,0.0558594,
2012-02-24, 00:12:04,VALID,998.263,VALID,0,VALID,92.8067,VALID,0,VALID,23.8573,VALID,61,VALID,0,
2012-02-24, 00:13:04,VALID,998.269,VALID,0,VALID,92.8677,VALID,0,VALID,23.836,VALID,61,VALID,0.523438,
2012-02-24, 00:14:04,VALID,998.261,VALID,0,VALID,93.0356,VALID,0,VALID,23.8573,VALID,61,VALID,0.687891,
2012-02-24, 00:15:04,VALID,998.226,VALID,0,VALID,93.1424,VALID,0,VALID,23.8378,VALID,61,VALID,0.246484,
2012-02-24, 00:16:04,VALID,998.207,VALID,0,VALID,93.1805,VALID,0,VALID,23.8165,VALID,61,VALID,0,
2012-02-24, 00:17:04,VALID,998.244,VALID,0,VALID,93.2111,VALID,0,VALID,23.8165,VALID,61,VALID,0.105859,
2012-02-24, 00:18:04,VALID,998.205,VALID,0,VALID,93.0661,VALID,0,VALID,23.7988,VALID,42,VALID,0.694922,
2012-02-24, 00:19:04,VALID,998.221,VALID,0,VALID,93.0356,VALID,0,VALID,23.7793,VALID,11,VALID,0.567969,
2012-02-24, 00:20:04,VALID,998.192,VALID,0,VALID,93.2263,VALID,0,VALID,23.7793,VALID,55,VALID,0.651563,
2012-02-24, 00:21:04,VALID,998.195,VALID,0,VALID,93.3408,VALID,0,VALID,23.7597,VALID,55,VALID,0.285156,
2012-02-24, 00:22:04,VALID,998.204,VALID,0,VALID,93.3637,VALID,0,VALID,23.7793,VALID,182,VALID,0.689844,
2012-02-24, 00:23:04,VALID,998.216,VALID,0,VALID,93.4094,VALID,0,VALID,23.7793,VALID,139,VALID,1.60117,
2012-02-24, 00:24:04,VALID,998.171,VALID,0,VALID,93.562,VALID,0,VALID,23.8183,VALID,144,VALID,1.95,
2012-02-24, 00:25:04,VALID,998.198,VALID,0,VALID,93.707,VALID,0,VALID,23.836,VALID,146,VALID,1.75742,
2012-02-24, 00:26:04,VALID,998.202,VALID,0,VALID,93.7604,VALID,0,VALID,23.875,VALID,147,VALID,2.01641,
2012-02-24, 00:27:04,VALID,998.199,VALID,0,VALID,93.768,VALID,0,VALID,23.9336,VALID,134,VALID,1.81484,
2012-02-24, 00:28:04,VALID,998.202,VALID,0,VALID,93.6841,VALID,0,VALID,23.9336,VALID,135,VALID,1.825,
2012-02-24, 00:29:04,VALID,998.19,VALID,0,VALID,93.5697,VALID,0,VALID,23.9744,VALID,139,VALID,1.85938,
2012-02-24, 00:30:04,VALID,998.223,VALID,0,VALID,93.4857,VALID,0,VALID,23.9939,VALID,134,VALID,1.725,
2012-02-24, 00:31:04,VALID,998.231,VALID,0,VALID,93.3942,VALID,0,VALID,24.0134,VALID,135,VALID,1.84727,
2012-02-24, 00:32:04,VALID,998.191,VALID,0,VALID,93.3408,VALID,0,VALID,24.0134,VALID,131,VALID,1.92031,
2012-02-24, 00:33:04,VALID,998.156,VALID,0,VALID,93.3103,VALID,0,VALID,24.0134,VALID,137,VALID,1.49102,
2012-02-24, 00:34:04,VALID,998.139,VALID,0,VALID,93.234,VALID,0,VALID,24.0116,VALID,134,VALID,1.52383,
2012-02-24, 00:35:04,VALID,998.127,VALID,0,VALID,93.1577,VALID,0,VALID,24.0329,VALID,130,VALID,1.58281,
2012-02-24, 00:36:04,VALID,998.087,VALID,0,VALID,93.0432,VALID,0,VALID,24.0116,VALID,124,VALID,1.55352,
2012-02-24, 00:37:05,VALID,998.107,VALID,0,VALID,92.9745,VALID,0,VALID,24.0329,VALID,123,VALID,1.08125,
2012-02-24, 00:38:05,VALID,998.083,VALID,0,VALID,92.944,VALID,0,VALID,24.0116,VALID,111,VALID,1.0625,
2012-02-24, 00:39:05,VALID,998.066,VALID,0,VALID,92.9288,VALID,0,VALID,24.0134,VALID,101,VALID,0.990234,
2012-02-24, 00:40:05,VALID,998.03,VALID,0,VALID,92.944,VALID,0,VALID,23.9921,VALID,109,VALID,1.06133,
2012-02-24, 00:41:05,VALID,998.004,VALID,0,VALID,92.9135,VALID,0,VALID,23.9744,VALID,111,VALID,1.10039,
2012-02-24, 00:42:05,VALID,997.98,VALID,0,VALID,92.9898,VALID,0,VALID,23.9744,VALID,114,VALID,1.28164,
2012-02-24, 00:43:05,VALID,997.99,VALID,0,VALID,93.0051,VALID,0,VALID,23.9531,VALID,116,VALID,1.20742,
2012-02-24, 00:44:05,VALID,997.968,VALID,0,VALID,93.0585,VALID,0,VALID,23.9336,VALID,121,VALID,1.48047,
2012-02-24, 00:45:05,VALID,997.946,VALID,0,VALID,93.0585,VALID,0,VALID,23.9336,VALID,121,VALID,1.38359,
2012-02-24, 00:46:05,VALID,997.942,VALID,0,VALID,93.0737,VALID,0,VALID,23.914,VALID,126,VALID,1.64023,
2012-02-24, 00:47:05,VALID,997.952,VALID,0,VALID,93.1348,VALID,0,VALID,23.8945,VALID,126,VALID,1.81953,
2012-02-24, 00:48:05,VALID,997.943,VALID,0,VALID,93.1882,VALID,0,VALID,23.9159,VALID,126,VALID,1.92344,
2012-02-24, 00:49:05,VALID,997.915,VALID,0,VALID,93.2263,VALID,0,VALID,23.8945,VALID,121,VALID,1.48945,
2012-02-24, 00:50:05,VALID,997.911,VALID,0,VALID,93.234,VALID,0,VALID,23.8963,VALID,121,VALID,1.67734,
2012-02-24, 00:51:05,VALID,997.868,VALID,0,VALID,93.2416,VALID,0,VALID,23.8963,VALID,121,VALID,1.52109,
2012-02-24, 00:52:05,VALID,997.86,VALID,0,VALID,93.2416,VALID,0,VALID,23.8768,VALID,124,VALID,1.52305,
2012-02-24, 00:53:05,VALID,997.829,VALID,0,VALID,93.2492,VALID,0,VALID,23.8768,VALID,119,VALID,1.39609,
2012-02-24, 00:54:05,VALID,997.822,VALID,0,VALID,93.2416,VALID,0,VALID,23.836,VALID,115,VALID,1.06328,
2012-02-24, 00:55:05,VALID,997.816,VALID,0,VALID,93.1805,VALID,0,VALID,23.836,VALID,114,VALID,0.985156,
2012-02-24, 00:56:05,VALID,997.795,VALID,0,VALID,93.1577,VALID,0,VALID,23.797,VALID,113,VALID,0.887891,
2012-02-24, 00:57:05,VALID,997.77,VALID,0,VALID,93.1119,VALID,0,VALID,23.8183,VALID,114,VALID,0.670313,
2012-02-24, 00:58:05,VALID,997.767,VALID,0,VALID,93.0585,VALID,0,VALID,23.7775,VALID,113,VALID,0.723828,
2012-02-24, 00:59:05,VALID,997.755,VALID,0,VALID,93.028,VALID,0,VALID,23.7793,VALID,114,VALID,0.519141,
2012-02-24, 01:00:05,VALID,997.798,VALID,0,VALID,93.0356,VALID,0,VALID,23.7384,VALID,123,VALID,0.329297,
2012-02-24, 01:01:05,VALID,997.781,VALID,0,VALID,93.0127,VALID,0,VALID,23.7402,VALID,123,VALID,0.170312,
2012-02-24, 01:02:05,VALID,997.835,VALID,0,VALID,93.0203,VALID,0,VALID,23.7402,VALID,123,VALID,0.596875,
2012-02-24, 01:03:05,VALID,997.807,VALID,0,VALID,93.0508,VALID,0,VALID,23.7012,VALID,133,VALID,0.570703,
2012-02-24, 01:04:05,VALID,997.834,VALID,0,VALID,93.0585,VALID,0,VALID,23.7012,VALID,141,VALID,0.521875,
2012-02-24, 01:05:05,VALID,997.807,VALID,0,VALID,93.1424,VALID,0,VALID,23.7012,VALID,169,VALID,1.0168,
2012-02-24, 01:06:05,VALID,997.803,VALID,0,VALID,93.2416,VALID,0,VALID,23.7207,VALID,187,VALID,1.26641,
2012-02-24, 01:07:05,VALID,997.783,VALID,0,VALID,93.3331,VALID,0,VALID,23.7579,VALID,195,VALID,1.48086,
2012-02-24, 01:08:05,VALID,997.779,VALID,0,VALID,93.3866,VALID,0,VALID,23.7775,VALID,189,VALID,1.48867,
2012-02-24, 01:09:05,VALID,997.752,VALID,0,VALID,93.3789,VALID,0,VALID,23.8165,VALID,202,VALID,1.67148,
2012-02-24, 01:10:05,VALID,997.747,VALID,0,VALID,93.3255,VALID,0,VALID,23.8573,VALID,246,VALID,1.06719,
2012-02-24, 01:11:05,VALID,997.738,VALID,0,VALID,93.1043,VALID,0,VALID,23.8378,VALID,248,VALID,1.02266,
2012-02-24, 01:12:05,VALID,997.728,VALID,0,VALID,92.8677,VALID,0,VALID,23.7988,VALID,250,VALID,1.1543,
2012-02-24, 01:13:05,VALID,997.691,VALID,0,VALID,92.7685,VALID,0,VALID,23.7384,VALID,236,VALID,0.901172,
2012-02-24, 01:14:05,VALID,997.705,VALID,0,VALID,92.7304,VALID,0,VALID,23.7207,VALID,236,VALID,0.689453,
2012-02-24, 01:15:05,VALID,997.683,VALID,0,VALID,92.7609,VALID,0,VALID,23.6817,VALID,247,VALID,0.980469,
2012-02-24, 01:16:05,VALID,997.683,VALID,0,VALID,92.822,VALID,0,VALID,23.6817,VALID,251,VALID,0.798047,
2012-02-24, 01:17:05,VALID,997.682,VALID,0,VALID,92.8906,VALID,0,VALID,23.6622,VALID,251,VALID,0.432422,
2012-02-24, 01:18:05,VALID,997.71,VALID,0,VALID,92.9135,VALID,0,VALID,23.6622,VALID,251,VALID,0.09375,
2012-02-24, 01:19:05,VALID,997.695,VALID,0,VALID,92.9211,VALID,0,VALID,23.6427,VALID,251,VALID,0,
2012-02-24, 01:20:05,VALID,997.72,VALID,0,VALID,92.8983,VALID,0,VALID,23.6427,VALID,221,VALID,0,
2012-02-24, 01:21:05,VALID,997.75,VALID,0,VALID,92.9822,VALID,0,VALID,23.6019,VALID,179,VALID,0,
2012-02-24, 01:22:05,VALID,997.757,VALID,0,VALID,93.0127,VALID,0,VALID,23.6036,VALID,179,VALID,0,
2012-02-24, 01:23:05,VALID,997.751,VALID,0,VALID,93.0508,VALID,0,VALID,23.5841,VALID,179,VALID,0,
2012-02-24, 01:24:05,VALID,997.74,VALID,0,VALID,92.9898,VALID,0,VALID,23.5451,VALID,229,VALID,0.893359,
2012-02-24, 01:25:05,VALID,997.735,VALID,0,VALID,92.9898,VALID,0,VALID,23.5061,VALID,352,VALID,1.15078,
2012-02-24, 01:26:05,VALID,997.743,VALID,0,VALID,93.089,VALID,0,VALID,23.4653,VALID,352,VALID,0.844141,
2012-02-24, 01:27:05,VALID,997.735,VALID,0,VALID,93.2263,VALID,0,VALID,23.4475,VALID,352,VALID,0.517969,
2012-02-24, 01:28:05,VALID,997.703,VALID,0,VALID,93.3713,VALID,0,VALID,23.428,VALID,352,VALID,0.310547,
2012-02-24, 01:29:05,VALID,997.726,VALID,0,VALID,93.44,VALID,0,VALID,23.3872,VALID,352,VALID,0.324609,
2012-02-24, 01:30:05,VALID,997.727,VALID,0,VALID,93.4705,VALID,0,VALID,23.4085,VALID,352,VALID,0.3625,
2012-02-24, 01:31:05,VALID,997.744,VALID,0,VALID,93.5391,VALID,0,VALID,23.389,VALID,352,VALID,0,
2012-02-24, 01:32:05,VALID,997.736,VALID,0,VALID,93.5773,VALID,0,VALID,23.3872,VALID,352,VALID,0,
2012-02-24, 01:33:05,VALID,997.69,VALID,0,VALID,93.5773,VALID,0,VALID,23.3695,VALID,352,VALID,0,
2012-02-24, 01:34:05,VALID,997.664,VALID,0,VALID,93.6002,VALID,0,VALID,23.3695,VALID,352,VALID,0,
2012-02-24, 01:35:05,VALID,997.644,VALID,0,VALID,93.6688,VALID,0,VALID,23.389,VALID,352,VALID,0,
2012-02-24, 01:36:05,VALID,997.643,VALID,0,VALID,93.707,VALID,0,VALID,23.3677,VALID,352,VALID,0,
2012-02-24, 01:37:05,VALID,997.646,VALID,0,VALID,93.768,VALID,0,VALID,23.389,VALID,352,VALID,0,
2012-02-24, 01:38:05,VALID,997.66,VALID,0,VALID,93.7757,VALID,0,VALID,23.3482,VALID,352,VALID,0,
2012-02-24, 01:39:05,VALID,997.669,VALID,0,VALID,93.8443,VALID,0,VALID,23.389,VALID,352,VALID,0,
2012-02-24, 01:40:05,VALID,997.62,VALID,0,VALID,93.8977,VALID,0,VALID,23.3872,VALID,352,VALID,0,
2012-02-24, 01:41:05,VALID,997.615,VALID,0,VALID,93.9435,VALID,0,VALID,23.4085,VALID,352,VALID,0,
2012-02-24, 01:42:05,VALID,997.564,VALID,0,VALID,93.9664,VALID,0,VALID,23.428,VALID,352,VALID,0,
2012-02-24, 01:43:05,VALID,997.564,VALID,0,VALID,93.9664,VALID,0,VALID,23.4263,VALID,352,VALID,0,
2012-02-24, 01:44:05,VALID,997.524,VALID,0,VALID,93.9359,VALID,0,VALID,23.4475,VALID,352,VALID,0,
2012-02-24, 01:45:05,VALID,997.486,VALID,0,VALID,93.8825,VALID,0,VALID,23.4085,VALID,328,VALID,0,
2012-02-24, 01:46:05,VALID,997.485,VALID,0,VALID,93.8825,VALID,0,VALID,23.428,VALID,328,VALID,0,
2012-02-24, 01:47:05,VALID,997.488,VALID,0,VALID,93.852,VALID,0,VALID,23.3872,VALID,328,VALID,0,
2012-02-24, 01:48:05,VALID,997.459,VALID,0,VALID,93.8214,VALID,0,VALID,23.389,VALID,328,VALID,0,
2012-02-24, 01:49:05,VALID,997.478,VALID,0,VALID,93.7985,VALID,0,VALID,23.3695,VALID,328,VALID,0,
2012-02-24, 01:50:05,VALID,997.469,VALID,0,VALID,93.7909,VALID,0,VALID,23.3695,VALID,328,VALID,0,
2012-02-24, 01:51:05,VALID,997.461,VALID,0,VALID,93.7833,VALID,0,VALID,23.3287,VALID,328,VALID,0,
2012-02-24, 01:52:05,VALID,997.446,VALID,0,VALID,93.7757,VALID,0,VALID,23.3287,VALID,328,VALID,0,
2012-02-24, 01:53:05,VALID,997.433,VALID,0,VALID,93.7909,VALID,0,VALID,23.3305,VALID,328,VALID,0,
2012-02-24, 01:54:05,VALID,997.408,VALID,0,VALID,93.8291,VALID,0,VALID,23.3305,VALID,328,VALID,0,
2012-02-24, 01:55:05,VALID,997.4,VALID,0,VALID,93.8672,VALID,0,VALID,23.35,VALID,328,VALID,0,
2012-02-24, 01:56:05,VALID,997.393,VALID,0,VALID,93.8901,VALID,0,VALID,23.3287,VALID,328,VALID,0,
2012-02-24, 01:57:05,VALID,997.435,VALID,0,VALID,93.9054,VALID,0,VALID,23.3092,VALID,328,VALID,0,
2012-02-24, 01:58:05,VALID,997.407,VALID,0,VALID,93.8901,VALID,0,VALID,23.3305,VALID,328,VALID,0,
2012-02-24, 01:59:05,VALID,997.369,VALID,0,VALID,93.8443,VALID,0,VALID,23.3305,VALID,328,VALID,0,
2012-02-24, 02:00:05,VALID,997.359,VALID,0,VALID,93.8214,VALID,0,VALID,23.311,VALID,328,VALID,0.383984,
2012-02-24, 02:01:05,VALID,997.34,VALID,0,VALID,93.8214,VALID,0,VALID,23.2719,VALID,328,VALID,0.281641,
2012-02-24, 02:02:05,VALID,997.334,VALID,0,VALID,93.8443,VALID,0,VALID,23.2524,VALID,328,VALID,0.0886719,
2012-02-24, 02:03:05,VALID,997.352,VALID,0,VALID,93.8291,VALID,0,VALID,23.2312,VALID,328,VALID,0.21875,
2012-02-24, 02:04:05,VALID,997.344,VALID,0,VALID,93.8748,VALID,0,VALID,23.2134,VALID,328,VALID,0.275391,
2012-02-24, 02:05:05,VALID,997.299,VALID,0,VALID,93.9359,VALID,0,VALID,23.2329,VALID,328,VALID,0.546094,
2012-02-24, 02:06:05,VALID,997.288,VALID,0,VALID,93.974,VALID,0,VALID,23.2134,VALID,328,VALID,0.51875,
2012-02-24, 02:07:05,VALID,997.297,VALID,0,VALID,93.9664,VALID,0,VALID,23.2134,VALID,328,VALID,0.585156,
2012-02-24, 02:08:05,VALID,997.298,VALID,0,VALID,93.9588,VALID,0,VALID,23.1939,VALID,328,VALID,0.476172,
2012-02-24, 02:09:05,VALID,997.314,VALID,0,VALID,93.9893,VALID,0,VALID,23.1744,VALID,283,VALID,0.544141,
2012-02-24, 02:10:05,VALID,997.322,VALID,0,VALID,93.974,VALID,0,VALID,23.1939,VALID,283,VALID,0.386719,
2012-02-24, 02:11:05,VALID,997.271,VALID,0,VALID,94.0198,VALID,0,VALID,23.1939,VALID,283,VALID,0.387109,
2012-02-24, 02:12:05,VALID,997.327,VALID,0,VALID,94.0198,VALID,0,VALID,23.1939,VALID,283,VALID,0.570703,
2012-02-24, 02:13:05,VALID,997.272,VALID,0,VALID,94.0503,VALID,0,VALID,23.2134,VALID,233,VALID,0.689844,
2012-02-24, 02:14:05,VALID,997.321,VALID,0,VALID,94.0656,VALID,0,VALID,23.1939,VALID,230,VALID,0.562891,
2012-02-24, 02:15:05,VALID,997.35,VALID,0,VALID,94.0961,VALID,0,VALID,23.2347,VALID,230,VALID,0.542969,
2012-02-24, 02:16:05,VALID,997.371,VALID,0,VALID,94.1266,VALID,0,VALID,23.2329,VALID,230,VALID,0.341016,
2012-02-24, 02:17:05,VALID,997.371,VALID,0,VALID,94.0961,VALID,0,VALID,23.2542,VALID,230,VALID,0.391797,
2012-02-24, 02:18:05,VALID,997.353,VALID,0,VALID,94.0198,VALID,0,VALID,23.2134,VALID,230,VALID,0.0777344,
2012-02-24, 02:19:05,VALID,997.345,VALID,0,VALID,93.9664,VALID,0,VALID,23.2134,VALID,230,VALID,0.370313,
2012-02-24, 02:20:05,VALID,997.366,VALID,0,VALID,93.974,VALID,0,VALID,23.1921,VALID,230,VALID,0.201172,
2012-02-24, 02:21:05,VALID,997.394,VALID,0,VALID,93.9511,VALID,0,VALID,23.1726,VALID,230,VALID,0.129297,
2012-02-24, 02:22:05,VALID,997.385,VALID,0,VALID,93.9511,VALID,0,VALID,23.1726,VALID,230,VALID,0,
2012-02-24, 02:23:05,VALID,997.41,VALID,0,VALID,93.974,VALID,0,VALID,23.1531,VALID,230,VALID,0,
2012-02-24, 02:24:05,VALID,997.399,VALID,0,VALID,94.0198,VALID,0,VALID,23.1744,VALID,230,VALID,0,
2012-02-24, 02:25:05,VALID,997.397,VALID,0,VALID,94.0045,VALID,0,VALID,23.1531,VALID,230,VALID,0,
2012-02-24, 02:26:05,VALID,997.42,VALID,0,VALID,93.9054,VALID,0,VALID,23.1141,VALID,230,VALID,0,
2012-02-24, 02:27:05,VALID,997.413,VALID,0,VALID,93.7909,VALID,0,VALID,23.0573,VALID,230,VALID,0.632422,
2012-02-24, 02:28:05,VALID,997.407,VALID,0,VALID,93.8977,VALID,0,VALID,23.0556,VALID,336,VALID,0.599219,
2012-02-24, 02:29:05,VALID,997.409,VALID,0,VALID,93.9511,VALID,0,VALID,23.0361,VALID,336,VALID,0.655859,
2012-02-24, 02:30:05,VALID,997.411,VALID,0,VALID,93.9893,VALID,0,VALID,23.0573,VALID,336,VALID,0.495313,
2012-02-24, 02:31:05,VALID,997.411,VALID,0,VALID,94.0045,VALID,0,VALID,22.9971,VALID,336,VALID,0.752734,
2012-02-24, 02:32:05,VALID,997.429,VALID,0,VALID,93.9893,VALID,0,VALID,22.9581,VALID,341,VALID,0.599219,
2012-02-24, 02:33:05,VALID,997.395,VALID,0,VALID,94.0122,VALID,0,VALID,22.9581,VALID,341,VALID,0.389844,
2012-02-24, 02:34:05,VALID,997.414,VALID,0,VALID,94.0656,VALID,0,VALID,22.9385,VALID,341,VALID,0.210547,
2012-02-24, 02:35:05,VALID,997.425,VALID,0,VALID,94.0045,VALID,0,VALID,22.8995,VALID,341,VALID,0.555859,
2012-02-24, 02:36:05,VALID,997.425,VALID,0,VALID,93.9206,VALID,0.104696,VALID,22.8623,VALID,341,VALID,0.517578,
2012-02-24, 02:37:05,VALID,997.409,VALID,0,VALID,93.9588,VALID,0,VALID,22.8215,VALID,341,VALID,0,
2012-02-24, 02:38:05,VALID,997.392,VALID,0,VALID,93.9664,VALID,0,VALID,22.7825,VALID,341,VALID,0,
2012-02-24, 02:39:05,VALID,997.395,VALID,0,VALID,93.9893,VALID,0,VALID,22.763,VALID,341,VALID,0,
2012-02-24, 02:40:05,VALID,997.381,VALID,0,VALID,94.0656,VALID,0,VALID,22.7825,VALID,341,VALID,0,
2012-02-24, 02:41:05,VALID,997.374,VALID,0,VALID,94.1495,VALID,0,VALID,22.7825,VALID,341,VALID,0,
2012-02-24, 02:42:05,VALID,997.433,VALID,0,VALID,94.2182,VALID,0,VALID,22.802,VALID,341,VALID,0.132422,
2012-02-24, 02:43:05,VALID,997.427,VALID,0,VALID,94.2945,VALID,0,VALID,22.8427,VALID,341,VALID,0.296094,
2012-02-24, 02:44:05,VALID,997.451,VALID,0,VALID,94.3631,VALID,0,VALID,22.841,VALID,341,VALID,0,
2012-02-24, 02:45:05,VALID,997.473,VALID,0,VALID,94.4089,VALID,0.104696,VALID,22.8818,VALID,341,VALID,0.000390625,
2012-02-24, 02:46:05,VALID,997.489,VALID,0,VALID,94.4089,VALID,0,VALID,22.88,VALID,341,VALID,0.38125,
2012-02-24, 02:47:05,VALID,997.457,VALID,0,VALID,94.4547,VALID,0.104696,VALID,22.9208,VALID,283,VALID,0.383203,
2012-02-24, 02:48:05,VALID,997.455,VALID,0,VALID,94.4852,VALID,0,VALID,22.9385,VALID,283,VALID,0,
2012-02-24, 02:49:05,VALID,997.468,VALID,0,VALID,94.5234,VALID,0,VALID,22.9403,VALID,283,VALID,0,
2012-02-24, 02:50:05,VALID,997.465,VALID,0,VALID,94.531,VALID,0,VALID,22.9793,VALID,283,VALID,0,
2012-02-24, 02:51:05,VALID,997.419,VALID,0,VALID,94.5539,VALID,0,VALID,23.0201,VALID,283,VALID,0,
2012-02-24, 02:52:05,VALID,997.42,VALID,0,VALID,94.5539,VALID,0,VALID,23.0183,VALID,283,VALID,0,
2012-02-24, 02:53:05,VALID,997.419,VALID,0,VALID,94.5157,VALID,0,VALID,23.0183,VALID,283,VALID,0,
2012-02-24, 02:54:05,VALID,997.407,VALID,0,VALID,94.4928,VALID,0,VALID,22.9988,VALID,283,VALID,0,
2012-02-24, 02:55:05,VALID,997.396,VALID,0,VALID,94.4394,VALID,0,VALID,23.0201,VALID,284,VALID,0,
2012-02-24, 02:56:05,VALID,997.395,VALID,0,VALID,94.4547,VALID,0,VALID,23.0396,VALID,353,VALID,0,
2012-02-24, 02:57:05,VALID,997.404,VALID,0,VALID,94.4852,VALID,0,VALID,23.0378,VALID,15,VALID,0,
2012-02-24, 02:58:05,VALID,997.396,VALID,0,VALID,94.5234,VALID,0,VALID,23.0981,VALID,23,VALID,0,
2012-02-24, 02:59:05,VALID,997.395,VALID,0,VALID,94.5615,VALID,0,VALID,23.1176,VALID,36,VALID,0,
2012-02-24, 03:00:05,VALID,997.391,VALID,0,VALID,94.5691,VALID,0,VALID,23.1159,VALID,36,VALID,0,
2012-02-24, 03:01:05,VALID,997.343,VALID,0,VALID,94.5844,VALID,0,VALID,23.1762,VALID,29,VALID,0.771094,
2012-02-24, 03:02:05,VALID,997.339,VALID,0,VALID,94.592,VALID,0,VALID,23.1744,VALID,24,VALID,0.383984,
2012-02-24, 03:03:05,VALID,997.307,VALID,0,VALID,94.592,VALID,0,VALID,23.1939,VALID,24,VALID,0,
2012-02-24, 03:04:05,VALID,997.316,VALID,0,VALID,94.5997,VALID,0,VALID,23.2117,VALID,24,VALID,0.358594,
2012-02-24, 03:05:05,VALID,997.317,VALID,0,VALID,94.5844,VALID,0,VALID,23.2329,VALID,24,VALID,0.460156,
2012-02-24, 03:06:05,VALID,997.336,VALID,0,VALID,94.6073,VALID,0,VALID,23.2524,VALID,24,VALID,0.188281,
2012-02-24, 03:07:05,VALID,997.334,VALID,0,VALID,94.592,VALID,0,VALID,23.2719,VALID,24,VALID,0.208594,
2012-02-24, 03:08:05,VALID,997.308,VALID,0,VALID,94.5844,VALID,0,VALID,23.2915,VALID,24,VALID,0.405469,
2012-02-24, 03:09:05,VALID,997.319,VALID,0,VALID,94.5997,VALID,0,VALID,23.311,VALID,48,VALID,0.683594,
2012-02-24, 03:10:05,VALID,997.255,VALID,0,VALID,94.6073,VALID,0,VALID,23.35,VALID,161,VALID,0.935547,
2012-02-24, 03:11:05,VALID,997.222,VALID,0,VALID,94.6149,VALID,0,VALID,23.389,VALID,161,VALID,1.08281,
2012-02-24, 03:12:05,VALID,997.231,VALID,0,VALID,94.6378,VALID,0,VALID,23.428,VALID,161,VALID,0.914453,
2012-02-24, 03:13:05,VALID,997.219,VALID,0,VALID,94.6302,VALID,0,VALID,23.4263,VALID,161,VALID,0.7125,
2012-02-24, 03:14:05,VALID,997.211,VALID,0,VALID,94.6149,VALID,0,VALID,23.4653,VALID,159,VALID,0.931641,
2012-02-24, 03:15:05,VALID,997.218,VALID,0,VALID,94.5997,VALID,0,VALID,23.5061,VALID,155,VALID,0.978125,
2012-02-24, 03:16:05,VALID,997.197,VALID,0,VALID,94.5539,VALID,0,VALID,23.5043,VALID,154,VALID,0.998438,
2012-02-24, 03:17:05,VALID,997.212,VALID,0,VALID,94.5386,VALID,0,VALID,23.5238,VALID,155,VALID,1.14844,
2012-02-24, 03:18:05,VALID,997.193,VALID,0,VALID,94.5005,VALID,0,VALID,23.5451,VALID,164,VALID,1.42109,
2012-02-24, 03:19:05,VALID,997.2,VALID,0,VALID,94.5081,VALID,0,VALID,23.5628,VALID,169,VALID,1.18125,
2012-02-24, 03:20:05,VALID,997.19,VALID,0,VALID,94.4852,VALID,0,VALID,23.6036,VALID,172,VALID,1.25742,
2012-02-24, 03:21:04,VALID,997.198,VALID,0,VALID,94.4776,VALID,0,VALID,23.6019,VALID,165,VALID,1.18359,
2012-02-24, 03:22:04,VALID,997.187,VALID,0,VALID,94.4623,VALID,0,VALID,23.6019,VALID,165,VALID,1.03594,
2012-02-24, 03:23:04,VALID,997.187,VALID,0,VALID,94.4394,VALID,0,VALID,23.6427,VALID,154,VALID,0.872656,
2012-02-24, 03:24:04,VALID,997.214,VALID,0,VALID,94.4013,VALID,0,VALID,23.6427,VALID,156,VALID,1.29609,
2012-02-24, 03:25:04,VALID,997.224,VALID,0,VALID,94.3708,VALID,0,VALID,23.6427,VALID,156,VALID,1.3793,
2012-02-24, 03:26:04,VALID,997.241,VALID,0,VALID,94.3403,VALID,0,VALID,23.6427,VALID,166,VALID,1.26914,
2012-02-24, 03:27:04,VALID,997.286,VALID,0,VALID,94.3174,VALID,0,VALID,23.6427,VALID,166,VALID,1.26641,
2012-02-24, 03:28:04,VALID,997.355,VALID,0,VALID,94.2792,VALID,0,VALID,23.6622,VALID,166,VALID,1.08984,
2012-02-24, 03:29:04,VALID,997.393,VALID,0,VALID,94.2258,VALID,0,VALID,23.6622,VALID,166,VALID,0.985547,
2012-02-24, 03:30:04,VALID,997.445,VALID,0.5,VALID,94.1953,VALID,0,VALID,23.6817,VALID,165,VALID,0.989453,
2012-02-24, 03:31:04,VALID,997.46,VALID,0,VALID,94.119,VALID,0,VALID,23.6817,VALID,162,VALID,0.895703,
2012-02-24, 03:32:04,VALID,997.427,VALID,0,VALID,94.058,VALID,0,VALID,23.6817,VALID,162,VALID,0.698047,
2012-02-24, 03:33:04,VALID,997.47,VALID,0,VALID,93.9893,VALID,0,VALID,23.7012,VALID,162,VALID,0.690234,
2012-02-24, 03:34:04,VALID,997.446,VALID,0,VALID,93.9359,VALID,0,VALID,23.7012,VALID,162,VALID,0.482031,
2012-02-24, 03:35:04,VALID,997.452,VALID,0,VALID,93.913,VALID,0,VALID,23.6799,VALID,162,VALID,0,
2012-02-24, 03:36:04,VALID,997.445,VALID,0,VALID,93.8748,VALID,0,VALID,23.6994,VALID,162,VALID,0,
2012-02-24, 03:37:04,VALID,997.471,VALID,0,VALID,93.8825,VALID,0,VALID,23.7402,VALID,336,VALID,0.0277344,
2012-02-24, 03:38:04,VALID,997.495,VALID,0,VALID,93.913,VALID,0,VALID,23.7012,VALID,334,VALID,0.466406,
2012-02-24, 03:39:04,VALID,997.47,VALID,0,VALID,93.9435,VALID,0,VALID,23.7402,VALID,334,VALID,0.338672,
2012-02-24, 03:40:04,VALID,997.532,VALID,0,VALID,93.9435,VALID,0,VALID,23.7207,VALID,334,VALID,0,
2012-02-24, 03:41:04,VALID,997.521,VALID,0,VALID,93.9435,VALID,0,VALID,23.6994,VALID,334,VALID,0,
2012-02-24, 03:42:04,VALID,997.479,VALID,0,VALID,93.9283,VALID,0,VALID,23.7012,VALID,334,VALID,0,
2012-02-24, 03:43:04,VALID,997.491,VALID,0,VALID,93.9435,VALID,0,VALID,23.7012,VALID,334,VALID,0,
2012-02-24, 03:44:04,VALID,997.468,VALID,0,VALID,93.9206,VALID,0,VALID,23.7012,VALID,334,VALID,0,
2012-02-24, 03:45:04,VALID,997.458,VALID,0,VALID,93.9435,VALID,0,VALID,23.6817,VALID,334,VALID,0,
2012-02-24, 03:46:04,VALID,997.469,VALID,0,VALID,93.9359,VALID,0,VALID,23.6817,VALID,334,VALID,0,
2012-02-24, 03:47:04,VALID,997.505,VALID,0,VALID,93.9588,VALID,0,VALID,23.6817,VALID,334,VALID,0,
2012-02-24, 03:48:04,VALID,997.48,VALID,0,VALID,93.9893,VALID,0,VALID,23.7012,VALID,334,VALID,0.809375,
2012-02-24, 03:49:04,VALID,997.519,VALID,0,VALID,94.0274,VALID,0,VALID,23.7012,VALID,334,VALID,0.833594,